Change the Weather History Date:

Friday, April 19, 2013

  Actual Average Record
Temperature  
Mean Temperature 46 °F -  
Max Temperature 66 °F 68 °F 80 °F (2005)
Min Temperature 28 °F 46 °F 28 °F (2013)
Degree Days  
Heating Degree Days 19    
Moisture  
Dew Point 29 °F    
Average Humidity 58    
Maximum Humidity 85    
Minimum Humidity 31    
Precipitation  
Precipitation 0.00 in - - ()
Sea Level Pressure  
Sea Level Pressure 30.10 in    
Wind  
Wind Speed 10 mph (WNW)    
Max Wind Speed 17 mph    
Max Gust Speed 28 mph    
Visibility 10 miles    
Events      
Averages and records for this station are not official NWS values.
T = Trace of Precipitation, MM = Missing Value Source: NWS Daily Summary

Daily Weather History Graph

Daily Weather History Graph

Search for Another Location

Airport or City:

Trip Planner

Search our weather history database for the weather conditions in past years. The results will help you decide how hot, cold, wet, or windy it might be!

Date:

Astronomy

Apr. 19, 2013 Rise Set
Actual Time 6:47 AM CDT 8:06 PM CDT
Civil Twilight 6:20 AM CDT 8:34 PM CDT
Nautical Twilight 5:48 AM CDT 9:06 PM CDT
Astronomical Twilight 5:14 AM CDT 9:40 PM CDT
Moon 2:00 PM CDT (4/19) 2:55 AM CDT (4/19)
Length of Visible Light 14h 13m
Length of Day
13h 19m
First Quarter, 62% of the Moon is Illuminated
Apr 19
First Quarter
Apr 25
Full
May 2
Last Quarter
May 9
New
May 17
First Quarter

Hourly Weather History & Observations

Time (CDT) Temp. Windchill Dew Point Humidity Pressure Visibility Wind Dir Wind Speed Gust Speed Precip Events Conditions
12:54 AM 30.9 °F 23.5 °F 26.1 °F 82% 30.11 in 10.0 mi West 8.1 mph - N/A   Clear
1:54 AM 30.9 °F 22.8 °F 26.1 °F 82% 30.11 in 10.0 mi WNW 9.2 mph - N/A   Clear
2:54 AM 30.0 °F 21.7 °F 26.1 °F 85% 30.10 in 10.0 mi West 9.2 mph - N/A   Clear
3:54 AM 28.9 °F 20.4 °F 25.0 °F 85% 30.11 in 10.0 mi West 9.2 mph - N/A   Clear
4:54 AM 28.9 °F 20.4 °F 25.0 °F 85% 30.11 in 10.0 mi West 9.2 mph - N/A   Clear
5:54 AM 30.0 °F 21.7 °F 25.0 °F 82% 30.12 in 10.0 mi WNW 9.2 mph - N/A   Clear
6:54 AM 28.0 °F 21.7 °F 24.1 °F 85% 30.15 in 10.0 mi West 5.8 mph - N/A   Clear
7:54 AM 32.0 °F 24.8 °F 26.1 °F 79% 30.17 in 10.0 mi West 8.1 mph - N/A   Clear
8:54 AM 37.9 °F 29.6 °F 27.0 °F 65% 30.16 in 10.0 mi WNW 13.8 mph - N/A   Clear
9:54 AM 42.1 °F 34.5 °F 28.0 °F 58% 30.16 in 10.0 mi WNW 15.0 mph - N/A   Clear
10:54 AM 46.9 °F - 28.9 °F 50% 30.17 in 10.0 mi West 17.3 mph - N/A   Clear
11:54 AM 50.0 °F - 27.0 °F 41% 30.15 in 10.0 mi West 10.4 mph 18.4 mph N/A   Clear
12:54 PM 53.1 °F - 27.0 °F 37% 30.11 in 10.0 mi West 11.5 mph - N/A   Clear
1:54 PM 57.0 °F - 30.0 °F 36% 30.09 in 10.0 mi WSW 16.1 mph 25.3 mph N/A   Clear
2:54 PM 62.1 °F - 32.0 °F 32% 30.06 in 10.0 mi West 17.3 mph 26.5 mph N/A   Clear
3:54 PM 63.0 °F - 32.0 °F 31% 30.04 in 10.0 mi West 17.3 mph 27.6 mph N/A   Clear
5:54 PM 64.0 °F - 34.0 °F 33% 30.03 in 10.0 mi NNW 13.8 mph - N/A   Clear
6:54 PM 61.0 °F - 35.1 °F 38% 30.04 in 10.0 mi North 9.2 mph - N/A   Clear
7:54 PM 57.0 °F - 33.1 °F 40% 30.05 in 10.0 mi NNE 6.9 mph - N/A   Clear
8:54 PM 53.1 °F - 32.0 °F 45% 30.07 in 10.0 mi NE 6.9 mph - N/A   Clear
9:54 PM 51.1 °F - 32.0 °F 48% 30.09 in 10.0 mi East 4.6 mph - N/A   Clear
10:54 PM 48.9 °F - 32.0 °F 52% 30.09 in 10.0 mi East 4.6 mph - N/A   Clear
11:54 PM 46.0 °F 43.9 °F 32.0 °F 58% 30.09 in 10.0 mi East 4.6 mph - N/A   Clear